• In Hungary
  • List of Countries
  • For 7 days
  • Water Temperature
  • Satellite Maps
  • Weather Map
  • News
  • Weather Widgets
  • user-avatar
    Login

    Hourly Weather Falino

    Today, 20 August, Monday

    Time Temperature Precipitation Wind Pressure Humidity
    00:00 +16°C° 0 mm 2 mps 743 mmHg 95%
    01:00 +15°C° 0 mm 2 mps 743 mmHg 95%
    02:00 +15°C° 0 mm 2 mps 743 mmHg 95%
    03:00 +15°C° 0 mm 2 mps 743 mmHg 96%
    04:00 +15°C° 0 mm 2 mps 743 mmHg 96%
    05:00 +15°C° 0 mm 2 mps 743 mmHg 97%
    06:00 +16°C° 0 mm 2 mps 743 mmHg 94%
    07:00 +17°C° 0 mm 2 mps 743 mmHg 92%
    08:00 +18°C° 0 mm 3 mps 743 mmHg 89%
    09:00 +18°C° 0.3 mm 3 mps 743 mmHg 89%
    10:00 +19°C° 0.3 mm 3 mps 743 mmHg 88%
    11:00 +19°C° 0.3 mm 3 mps 742 mmHg 87%
    12:00 +19°C° 0.6 mm 2 mps 742 mmHg 88%
    13:00 +19°C° 0.6 mm 2 mps 742 mmHg 89%
    14:00 +19°C° 0.6 mm 2 mps 742 mmHg 90%
    15:00 +19°C° 0.4 mm 2 mps 741 mmHg 90%
    16:00 +19°C° 0.4 mm 2 mps 741 mmHg 91%
    17:00 +19°C° 0.4 mm 2 mps 741 mmHg 91%
    18:00 +18°C° 0.1 mm 2 mps 740 mmHg 93%
    19:00 +17°C° 0.1 mm 2 mps 740 mmHg 95%
    20:00 +17°C° 0.1 mm 2 mps 740 mmHg 97%
    21:00 +17°C° 0.1 mm 2 mps 739 mmHg 97%
    22:00 +17°C° 0.1 mm 3 mps 738 mmHg 96%
    23:00 +17°C° 0.1 mm 3 mps 738 mmHg 96%

    Tomorrow, 21 August, Tuesday

    Time Temperature Precipitation Wind Pressure Humidity
    00:00 +17°C° 0.1 mm 3 mps 737 mmHg 96%
    01:00 +17°C° 0.1 mm 4 mps 737 mmHg 96%
    02:00 +17°C° 0.1 mm 4 mps 736 mmHg 95%
    03:00 +17°C° 0.2 mm 4 mps 735 mmHg 95%
    04:00 +16°C° 0.2 mm 5 mps 735 mmHg 95%
    05:00 +16°C° 0.2 mm 5 mps 734 mmHg 95%
    06:00 +16°C° 0.6 mm 5 mps 734 mmHg 94%
    07:00 +17°C° 0.6 mm 5 mps 733 mmHg 93%
    08:00 +17°C° 0.6 mm 6 mps 733 mmHg 92%
    09:00 +17°C° 0.5 mm 6 mps 733 mmHg 89%
    10:00 +16°C° 0.5 mm 6 mps 733 mmHg 87%
    11:00 +16°C° 0.5 mm 6 mps 734 mmHg 84%
    12:00 +16°C° 0.2 mm 6 mps 734 mmHg 81%
    13:00 +15°C° 0.2 mm 6 mps 735 mmHg 78%
    14:00 +15°C° 0.2 mm 6 mps 735 mmHg 76%
    15:00 +14°C° 0.1 mm 6 mps 736 mmHg 76%
    16:00 +14°C° 0.1 mm 5 mps 736 mmHg 77%
    17:00 +14°C° 0.1 mm 5 mps 737 mmHg 77%
    18:00 +13°C° 0 mm 4 mps 737 mmHg 81%
    19:00 +12°C° 0 mm 4 mps 738 mmHg 84%
    20:00 +11°C° 0 mm 3 mps 738 mmHg 88%
    21:00 +11°C° 0 mm 4 mps 738 mmHg 88%
    22:00 +11°C° 0 mm 4 mps 738 mmHg 87%
    23:00 +10°C° 0 mm 4 mps 739 mmHg 87%

    Day after tomorrow, 22 August, Wednesday

    Time Temperature Precipitation Wind Pressure Humidity
    00:00 +10°C° 0 mm 4 mps 739 mmHg 86%
    01:00 +10°C° 0 mm 4 mps 739 mmHg 84%
    02:00 +10°C° 0 mm 4 mps 740 mmHg 82%
    03:00 +10°C° 0 mm 4 mps 740 mmHg 83%
    04:00 +8°C° 0 mm 4 mps 740 mmHg 84%
    05:00 +8°C° 0 mm 4 mps 741 mmHg 85%
    06:00 +10°C° 0 mm 4 mps 741 mmHg 78%
    07:00 +10°C° 0 mm 5 mps 742 mmHg 70%
    08:00 +13°C° 0 mm 5 mps 742 mmHg 63%
    09:00 +13°C° 0 mm 5 mps 742 mmHg 58%
    10:00 +14°C° 0 mm 5 mps 743 mmHg 54%
    11:00 +15°C° 0 mm 5 mps 743 mmHg 49%
    12:00 +15°C° 0 mm 5 mps 743 mmHg 47%
    13:00 +16°C° 0 mm 5 mps 744 mmHg 46%
    14:00 +16°C° 0 mm 5 mps 744 mmHg 44%
    15:00 +16°C° 0 mm 5 mps 744 mmHg 47%
    16:00 +17°C° 0 mm 4 mps 745 mmHg 49%
    17:00 +16°C° 0 mm 3 mps 745 mmHg 52%
    18:00 +14°C° 0 mm 3 mps 745 mmHg 59%
    19:00 +13°C° 0 mm 2 mps 746 mmHg 65%
    20:00 +10°C° 0 mm 2 mps 746 mmHg 72%
    21:00 +9°C° 0 mm 2 mps 746 mmHg 75%
    22:00 +8°C° 0 mm 2 mps 747 mmHg 78%
    23:00 +8°C° 0 mm 2 mps 747 mmHg 81%

    23 August, Thursday

    Time Temperature Precipitation Wind Pressure Humidity
    00:00 +7°C° 0 mm 2 mps 747 mmHg 83%
    01:00 +7°C° 0 mm 2 mps 747 mmHg 84%
    02:00 +7°C° 0 mm 2 mps 748 mmHg 86%
    03:00 +7°C° 0 mm 2 mps 748 mmHg 87%
    04:00 +7°C° 0 mm 2 mps 748 mmHg 88%
    05:00 +7°C° 0 mm 2 mps 748 mmHg 88%
    06:00 +9°C° 0 mm 2 mps 748 mmHg 80%
    07:00 +12°C° 0 mm 2 mps 748 mmHg 72%
    08:00 +14°C° 0 mm 3 mps 748 mmHg 64%
    09:00 +16°C° 0 mm 3 mps 748 mmHg 59%
    10:00 +18°C° 0 mm 3 mps 747 mmHg 54%
    11:00 +19°C° 0 mm 4 mps 747 mmHg 49%
    12:00 +20°C° 0 mm 4 mps 747 mmHg 48%
    13:00 +20°C° 0 mm 4 mps 747 mmHg 48%
    14:00 +21°C° 0 mm 4 mps 747 mmHg 47%
    15:00 +21°C° 0 mm 3 mps 746 mmHg 51%
    16:00 +20°C° 0 mm 3 mps 746 mmHg 56%
    17:00 +20°C° 0 mm 2 mps 746 mmHg 60%
    18:00 +18°C° 0 mm 2 mps 746 mmHg 66%
    19:00 +16°C° 0 mm 2 mps 746 mmHg 73%
    20:00 +14°C° 0 mm 2 mps 746 mmHg 79%
    21:00 +13°C° 0 mm 2 mps 746 mmHg 80%
    22:00 +12°C° 0 mm 2 mps 746 mmHg 81%
    23:00 +12°C° 0 mm 2 mps 746 mmHg 83%

    24 August, Friday

    Time Temperature Precipitation Wind Pressure Humidity
    00:00 +10°C° 0 mm 2 mps 746 mmHg 84%
    01:00 +10°C° 0 mm 2 mps 746 mmHg 86%
    02:00 +10°C° 0 mm 2 mps 746 mmHg 87%
    03:00 +9°C° 0 mm 2 mps 746 mmHg 89%
    04:00 +9°C° 0 mm 2 mps 746 mmHg 90%
    05:00 +9°C° 0 mm 2 mps 746 mmHg 92%
    06:00 +12°C° 0 mm 2 mps 747 mmHg 84%
    07:00 +14°C° 0 mm 2 mps 747 mmHg 77%
    08:00 +16°C° 0 mm 2 mps 747 mmHg 70%
    09:00 +18°C° 0 mm 2 mps 747 mmHg 64%
    10:00 +20°C° 0 mm 2 mps 746 mmHg 57%
    11:00 +21°C° 0 mm 3 mps 746 mmHg 51%
    12:00 +22°C° 0 mm 3 mps 746 mmHg 50%
    13:00 +22°C° 0 mm 3 mps 746 mmHg 49%
    14:00 +24°C° 0 mm 3 mps 746 mmHg 47%
    15:00 +23°C° 0 mm 2 mps 746 mmHg 52%
    16:00 +23°C° 0 mm 2 mps 745 mmHg 57%
    17:00 +21°C° 0 mm 2 mps 745 mmHg 62%
    18:00 +19°C° 0 mm 2 mps 745 mmHg 69%
    19:00 +17°C° 0 mm 2 mps 745 mmHg 76%
    20:00 +15°C° 0 mm 2 mps 745 mmHg 83%
    21:00 +14°C° 0 mm 2 mps 745 mmHg 85%
    22:00 +14°C° 0 mm 2 mps 745 mmHg 87%
    23:00 +13°C° 0 mm 2 mps 745 mmHg 89%

    25 August, Saturday

    Time Temperature Precipitation Wind Pressure Humidity
    00:00 +13°C° 0 mm 2 mps 745 mmHg 91%
    01:00 +12°C° 0 mm 2 mps 745 mmHg 92%
    02:00 +12°C° 0 mm 2 mps 745 mmHg 93%
    03:00 +12°C° 0 mm 2 mps 745 mmHg 93%
    04:00 +12°C° 0 mm 2 mps 745 mmHg 93%
    05:00 +12°C° 0 mm 2 mps 745 mmHg 93%
    06:00 +14°C° 0 mm 2 mps 745 mmHg 85%
    07:00 +16°C° 0 mm 2 mps 745 mmHg 77%
    08:00 +18°C° 0 mm 3 mps 745 mmHg 69%
    09:00 +20°C° 0 mm 3 mps 745 mmHg 63%
    10:00 +21°C° 0 mm 3 mps 745 mmHg 56%
    11:00 +24°C° 0 mm 3 mps 745 mmHg 49%
    12:00 +24°C° 0 mm 3 mps 745 mmHg 48%
    13:00 +25°C° 0 mm 3 mps 745 mmHg 46%
    14:00 +25°C° 0 mm 3 mps 744 mmHg 45%
    15:00 +25°C° 0 mm 3 mps 744 mmHg 50%
    16:00 +24°C° 0 mm 2 mps 744 mmHg 55%
    17:00 +23°C° 0 mm 2 mps 744 mmHg 60%
    18:00 +20°C° 0 mm 2 mps 744 mmHg 66%
    19:00 +18°C° 0 mm 2 mps 744 mmHg 73%
    20:00 +16°C° 0 mm 2 mps 744 mmHg 79%
    21:00 +15°C° 0 mm 2 mps 744 mmHg 80%
    22:00 +15°C° 0 mm 2 mps 744 mmHg 81%
    23:00 +14°C° 0 mm 2 mps 744 mmHg 83%
    Show more